Temperature
15 15 16 16 16 17 17 17 17 17 17 17 17 17 17 17 17 17 17 17 17 17 17 17 17 17 17 17 17 17 16 16 16 16 15 15 15 15 15 15 14 14 14
14 15 16 16 16 16 17 17 17 17 17 17 17 17 17 17 17 17 17 17 17 17 17 17 17 17 17 17 16 16 16 16 16 15 15 15 15 15 15 14 14 14 14
14 15 15 16 16 16 16 17 17 17 17 17 17 17 17 17 17 17 17 17 17 17 17 17 16 16 16 16 16 16 16 16 16 15 15 14 14 14 14 14 14 14 14
14 15 15 16 16 16 16 16 17 17 17 17 17 17 17 17 17 17 17 17 17 17 17 16 16 16 16 16 16 16 16 16 15 15 14 14 13 14 14 14 14 13 13
14 14 15 15 16 16 16 16 16 16 16 17 17 17 17 17 17 17 17 16 16 16 17 16 16 16 16 16 16 16 16 16 15 14 14 13 13 14 14 14 13 13 13
14 14 14 15 15 16 16 16 16 16 16 16 16 16 17 16 16 16 16 16 16 16 16 16 16 16 16 16 16 16 15 15 15 14 13 13 13 13 13 13 13 13 13
13 14 14 14 15 15 15 15 15 16 16 16 16 16 16 16 16 16 16 16 16 16 16 16 16 16 16 15 15 15 15 15 14 13 13 13 13 13 13 13 13 13 12
13 13 14 14 14 15 15 15 15 15 15 15 16 16 16 16 16 16 16 16 16 16 16 16 16 15 15 15 15 15 15 15 14 13 13 13 13 13 13 13 12 12 12
13 13 13 13 14 14 14 15 15 15 15 15 15 15 15 15 15 15 15 15 15 15 15 15 15 15 15 15 15 15 15 14 13 13 13 13 13 13 12 12 12 12 12
12 12 13 13 13 13 14 14 14 14 15 15 15 15 15 15 15 15 15 15 15 15 15 15 15 15 15 15 15 14 14 14 13 12 12 13 13 12 12 12 12 12 12
11 12 12 12 12 13 13 13 14 14 14 14 14 14 14 14 14 14 14 15 15 15 15 15 15 14 14 14 14 14 14 13 12 12 12 13 13 12 12 12 11 11 11
10 11 11 12 12 12 12 13 13 13 13 14 14 14 14 14 14 14 14 14 14 14 14 14 14 14 14 14 14 14 13 13 12 12 12 13 12 12 12 12 11 11 11
10 10 10 11 11 11 11 12 12 12 13 13 13 13 13 13 13 13 13 13 13 13 13 13 14 13 13 13 13 13 13 12 12 12 12 12 12 12 12 11 11 11 11
9 9 9 10 10 10 11 11 11 11 12 12 12 12 12 13 13 13 13 13 13 13 13 13 13 13 13 13 13 13 12 12 12 12 12 12 12 12 11 11 11 11 11
8 9 9 9 9 9 10 10 10 11 11 11 12 12 12 12 12 12 12 12 12 12 12 12 12 12 12 13 12 12 12 12 12 12 12 12 12 12 11 11 11 11 10
8 8 8 8 9 9 9 9 9 10 10 11 11 11 11 11 12 12 12 12 12 12 12 12 12 12 12 12 12 12 12 12 12 12 12 12 12 11 11 11 11 11 10
7 8 8 8 8 8 8 8 9 9 9 10 10 10 11 11 11 11 11 11 11 11 11 11 11 11 11 11 12 12 12 11 11 11 11 11 11 11 11 11 11 11 10
7 7 7 7 7 8 8 8 8 8 9 9 9 10 10 10 11 11 11 10 11 11 11 11 11 11 11 11 11 11 11 11 11 11 11 11 11 11 11 11 11 11 10
7 7 7 7 7 7 7 7 7 8 8 8 8 9 9 10 10 10 10 10 10 10 10 10 10 10 10 10 10 11 11 11 11 11 11 11 11 11 11 11 11 10 10
7 7 6 6 6 7 7 7 7 7 7 8 8 8 8 9 9 9 9 9 9 9 9 9 9 10 10 10 10 10 10 10 10 10 10 10 10 10 10 10 10 10 10
7 6 6 6 6 6 6 6 6 6 7 7 7 7 8 8 8 9 9 9 9 9 9 9 9 9 9 9 9 9 9 10 10 10 10 10 10 10 10 10 10 10 10
6 6 6 6 6 6 6 6 6 6 6 6 7 7 7 7 8 8 8 8 8 8 8 8 9 8 8 9 9 9 9 9 9 10 10 10 10 10 10 10 10 10 10
6 6 6 6 6 6 5 5 5 5 6 6 6 6 7 7 7 7 7 8 8 8 8 8 8 8 8 8 9 9 9 9 9 9 9 10 9 10 10 10 10 10 10
6 6 6 5 5 5 5 5 5 5 5 6 6 6 6 6 7 7 7 7 7 7 7 8 8 8 8 8 8 9 9 9 9 9 9 9 9 9 9 10 9 9 9
6 5 5 5 5 5 5 5 5 5 5 5 5 5 6 6 6 6 6 7 7 7 7 7 7 7 8 8 8 8 9 9 9 9 9 9 9 9 9 9 9 9 9
5 5 5 5 5 5 4 5 5 5 5 5 5 5 5 6 6 6 6 6 6 6 6 7 7 7 7 7 8 8 8 8 9 9 9 8 8 9 9 9 9 9 9
Wind_Speed
10 12 12 12 9 7 5 4 2 2 4 6 8 9 10 10 10 10 12 12 13 13 13 13 14 14 14 14 14 13 13 13 12 12 12 12 12 12 12 11 10 11 13
11 11 10 11 9 7 5 4 3 2 3 5 6 8 10 10 10 10 11 12 12 13 13 13 14 14 14 14 14 14 13 13 12 12 12 12 12 12 11 10 8 11 13
11 10 9 11 10 8 7 4 3 2 1 3 4 5 8 9 10 11 11 11 12 13 13 14 14 15 15 15 15 14 14 13 13 12 11 10 11 11 11 10 11 13 13
10 10 9 12 11 9 8 5 3 2 1 1 3 3 6 8 9 10 10 11 11 12 13 14 14 15 15 15 15 15 14 14 13 12 9 8 10 11 11 11 11 12 13
10 10 10 13 12 10 8 6 4 3 2 1 2 3 4 6 8 8 9 10 10 11 12 14 15 15 15 15 15 15 15 14 13 11 8 8 8 11 11 11 11 12 12
10 10 10 13 12 11 9 7 5 3 3 2 2 3 4 5 6 7 8 9 10 11 12 13 15 16 16 16 16 16 15 15 13 10 8 8 8 11 11 11 11 12 12
10 10 10 11 11 11 10 9 7 5 3 3 2 3 4 5 5 6 7 8 9 10 11 12 14 15 16 17 17 16 16 14 12 9 9 8 9 12 12 11 11 11 11
9 10 10 10 10 10 9 8 8 6 5 3 3 3 4 5 6 5 7 8 8 10 11 12 13 14 15 17 17 17 16 14 11 10 9 9 10 12 12 11 12 11 11
9 9 9 10 10 9 9 8 7 7 6 5 4 4 4 6 6 7 7 8 9 9 10 12 13 14 14 16 17 17 16 14 11 9 9 9 12 13 12 11 11 11 11
8 8 9 9 9 10 9 7 8 7 6 5 5 4 4 6 7 8 8 7 9 10 10 11 13 14 15 16 17 17 16 15 11 10 9 10 13 13 13 12 12 11 11
8 8 8 9 9 9 9 8 8 6 5 5 4 3 4 5 6 7 7 6 8 10 10 12 13 14 14 15 16 17 16 12 11 9 9 11 14 14 13 13 12 12 12
9 9 8 8 9 9 8 7 6 6 5 5 4 4 4 5 6 6 6 7 8 10 11 12 13 14 14 13 14 16 13 13 11 9 9 12 14 14 14 13 13 13 12
8 8 8 8 8 8 7 6 5 5 5 5 5 4 4 4 4 4 4 5 6 8 9 9 11 11 11 10 11 13 13 12 10 10 11 14 15 15 15 14 14 14 13
8 8 7 7 7 7 7 6 5 5 4 4 4 4 3 3 3 4 4 4 5 5 6 7 6 10 11 12 12 13 13 11 10 10 11 16 16 16 15 15 15 15 13
9 8 7 7 7 7 6 6 6 5 5 4 4 4 4 3 4 4 4 5 5 5 6 7 7 9 9 10 11 12 13 13 12 11 11 15 16 16 16 16 16 15 14
9 8 7 7 7 6 6 6 6 6 5 5 4 5 5 4 4 4 5 5 5 6 6 7 8 8 8 8 10 12 12 13 13 13 12 14 16 16 16 17 16 16 15
9 9 8 7 7 7 6 7 6 6 6 5 5 6 6 5 5 4 5 5 5 6 7 7 8 8 7 8 11 11 10 11 12 13 12 12 14 16 16 17 17 17 16
9 9 8 7 7 7 7 7 6 7 7 5 5 6 6 7 6 5 4 5 6 6 6 6 7 7 8 8 9 9 9 9 12 12 12 12 12 13 15 16 16 17 16
9 9 8 8 8 8 8 7 8 7 7 6 6 6 6 7 7 6 5 6 6 5 5 7 7 8 8 8 8 8 8 9 10 11 12 13 12 12 12 14 15 15 15
9 9 9 9 8 9 8 7 7 7 7 6 6 7 8 7 8 8 6 7 7 6 6 7 8 8 8 7 7 7 7 8 9 11 12 11 11 12 12 13 14 13 14
9 9 10 10 10 8 7 7 7 8 8 7 7 9 9 9 8 8 7 7 7 8 9 9 7 9 8 7 6 5 5 7 9 10 10 10 11 12 12 13 12 12 12
9 10 10 11 11 9 8 8 8 9 9 8 8 9 10 10 9 8 8 8 9 8 10 10 9 8 8 8 7 7 4 5 7 9 10 11 12 11 11 12 13 12 11
10 10 10 11 11 11 10 8 8 8 8 8 9 9 10 11 11 10 11 9 10 10 10 11 11 11 10 10 10 8 6 6 5 7 10 11 12 11 11 12 12 13 13
11 11 11 12 12 11 10 10 11 11 11 12 10 10 11 12 12 12 11 11 11 11 11 12 12 11 12 11 10 10 9 5 6 5 8 10 12 13 12 11 12 12 13
12 11 11 12 12 12 11 12 12 13 12 11 10 12 12 12 13 13 12 11 12 11 13 13 12 12 12 12 11 9 9 8 9 7 8 10 9 10 11 11 11 11 13
12 12 12 13 13 13 12 12 13 14 15 14 14 12 11 11 11 14 13 12 13 12 13 13 13 15 13 14 11 11 10 9 10 9 9 12 10 8 10 10 10 10 11
Wind_Direction
349 349 357 352 1 12 30 43 83 122 145 162 169 173 174 173 172 174 175 173 171 169 166 163 159 154 152 148 144 141 139 136 134 130 127 122 119 115 113 114 118 106 103
340 347 358 356 1 9 16 32 49 93 138 159 169 174 178 179 179 179 178 177 178 176 173 169 165 160 157 153 149 147 143 139 136 131 130 127 125 122 119 113 105 106 107
347 351 358 359 359 4 6 13 37 57 130 161 171 175 181 184 185 183 182 181 182 181 179 175 171 168 163 158 154 152 148 144 140 139 146 141 132 130 126 119 114 113 111
352 356 2 358 358 359 0 3 13 24 33 173 179 182 186 189 191 189 186 183 182 184 184 180 174 171 167 162 158 156 152 148 147 154 158 144 139 134 133 129 123 117 114
357 0 6 1 357 355 352 356 359 353 335 260 193 189 195 193 194 194 191 187 184 183 185 183 177 174 170 166 162 159 155 153 154 165 152 146 141 136 136 132 127 121 117
358 359 3 3 357 354 352 349 348 332 316 294 241 210 205 201 202 197 192 187 186 186 185 183 180 176 173 169 166 162 160 159 164 165 159 157 149 142 143 136 131 126 121
354 356 355 357 355 351 349 348 343 333 313 297 272 239 223 218 213 208 197 191 188 188 188 185 181 180 177 173 169 167 164 167 174 168 165 162 150 146 146 142 139 133 129
347 351 352 351 348 347 343 339 339 333 324 307 281 255 237 229 222 211 203 196 194 196 191 191 184 179 180 176 173 170 168 172 177 173 171 165 151 154 153 148 143 139 134
345 348 350 348 344 337 336 330 329 327 318 308 287 267 251 238 223 214 206 202 200 200 200 195 192 184 182 182 177 173 172 177 182 177 176 169 159 165 160 157 151 146 143
339 343 345 345 343 337 327 325 320 314 307 298 284 274 260 239 223 213 207 203 205 205 204 200 196 191 187 185 181 175 171 179 187 183 181 169 165 171 166 163 158 152 148
331 336 341 342 339 336 327 324 314 300 292 284 273 275 255 239 231 219 214 207 209 208 209 205 200 193 189 187 182 174 173 186 187 188 185 167 173 176 171 167 164 157 153
324 330 336 338 336 333 329 321 315 300 288 278 277 271 260 252 240 234 216 206 207 208 208 205 201 194 193 190 182 176 187 190 187 189 183 172 181 181 176 173 170 165 161
313 320 329 331 331 329 326 321 319 308 296 284 279 277 273 262 245 230 215 200 199 204 205 199 200 201 201 194 188 190 191 189 188 189 183 178 188 186 181 177 174 170 167
307 312 321 326 327 326 321 322 313 308 298 292 284 283 280 271 254 236 224 215 209 209 209 206 210 209 206 200 196 196 193 190 190 189 182 181 192 191 186 183 178 175 174
305 305 315 319 325 324 317 318 313 308 295 287 281 273 271 262 253 240 233 220 219 216 214 214 215 213 210 204 201 200 198 197 194 191 182 183 193 195 193 189 184 183 181
307 305 314 313 316 317 312 312 307 302 289 281 278 271 264 256 249 245 238 229 223 222 220 220 220 215 212 208 204 203 201 200 200 195 189 185 191 197 198 194 190 189 188
304 307 308 306 308 313 311 306 306 300 289 279 277 266 261 254 247 244 245 236 226 224 224 222 222 218 211 210 207 205 203 202 202 199 193 191 192 197 199 199 196 193 191
299 301 305 300 303 310 308 301 299 302 293 281 279 271 263 255 247 243 240 242 228 221 221 222 220 218 212 208 208 205 203 200 202 201 197 197 195 195 196 197 197 194 194
298 298 304 303 305 305 301 296 292 295 288 279 274 269 264 259 249 247 239 242 229 221 222 224 220 217 213 210 209 207 204 203 200 201 201 200 198 194 193 189 192 195 196
299 298 302 303 300 299 297 294 294 292 286 278 271 266 262 259 252 247 240 240 234 225 220 222 222 216 216 210 207 210 208 207 205 203 201 198 198 196 194 190 191 193 194
303 301 302 302 301 302 296 293 292 289 284 278 271 262 259 256 252 246 242 235 232 229 222 220 222 216 212 203 205 209 215 212 213 207 202 199 200 197 196 195 195 194 194
304 302 299 299 298 296 288 288 281 279 279 275 268 263 258 252 247 244 242 236 230 231 227 220 216 220 216 203 204 195 204 212 216 213 205 203 201 197 199 198 197 196 195
313 310 303 299 296 294 290 286 281 277 276 272 267 262 255 253 248 243 239 238 234 229 226 220 214 216 214 213 210 206 200 210 192 205 208 205 201 199 199 198 200 199 197
312 309 305 303 296 293 289 280 276 273 275 271 269 263 256 252 249 244 239 234 234 233 227 221 219 218 213 213 215 223 226 210 194 191 203 206 204 204 202 197 200 200 198
311 308 307 306 298 294 289 281 274 269 274 274 268 262 256 250 247 242 238 234 231 234 232 225 221 219 215 216 216 216 220 218 212 201 200 198 203 207 205 201 200 200 200
312 310 309 308 303 299 292 285 276 273 276 273 266 263 258 252 246 240 238 235 232 232 233 228 221 219 220 221 220 218 215 209 205 206 203 198 201 203 201 202 201 200 199
Height
1506 1504 1503 1503 1503 1503 1504 1504 1505 1505 1506 1506 1507 1508 1508 1509 1510 1511 1512 1513 1513 1514 1515 1515 1516 1516 1516 1516 1517 1517 1518 1518 1518 1518 1519 1519 1519 1519 1519 1519 1520 1519 1519
1505 1504 1503 1503 1503 1503 1504 1504 1505 1505 1505 1506 1507 1507 1508 1509 1509 1510 1511 1512 1513 1514 1514 1515 1515 1515 1516 1516 1517 1517 1518 1518 1518 1518 1519 1519 1519 1519 1519 1520 1520 1520 1520
1505 1504 1503 1502 1503 1503 1503 1504 1504 1504 1505 1505 1506 1507 1507 1508 1509 1509 1510 1511 1512 1513 1513 1514 1514 1515 1516 1516 1516 1517 1517 1518 1518 1519 1519 1520 1520 1520 1520 1520 1520 1520 1521
1504 1503 1502 1502 1502 1502 1502 1503 1503 1504 1504 1505 1505 1506 1506 1507 1508 1508 1509 1510 1510 1511 1512 1513 1513 1514 1515 1515 1516 1516 1517 1517 1518 1519 1520 1521 1521 1520 1520 1520 1521 1521 1521
1504 1503 1502 1501 1501 1501 1501 1502 1502 1502 1503 1503 1504 1504 1505 1505 1506 1507 1508 1508 1509 1509 1510 1511 1512 1513 1513 1514 1515 1516 1516 1517 1518 1519 1520 1521 1521 1520 1520 1521 1521 1521 1521
1503 1502 1501 1500 1500 1500 1500 1500 1500 1500 1501 1501 1502 1502 1503 1504 1504 1505 1506 1506 1507 1508 1509 1510 1510 1511 1512 1513 1514 1515 1515 1516 1517 1519 1520 1520 1521 1520 1520 1521 1521 1522 1522
1501 1500 1499 1498 1498 1498 1498 1498 1498 1498 1498 1499 1499 1500 1500 1501 1502 1503 1503 1504 1505 1506 1507 1508 1508 1509 1511 1512 1513 1513 1514 1515 1517 1518 1519 1519 1520 1520 1520 1521 1521 1522 1522
1500 1498 1497 1497 1496 1496 1495 1495 1495 1495 1496 1496 1496 1497 1498 1498 1499 1500 1501 1502 1503 1504 1505 1505 1506 1507 1509 1510 1511 1512 1513 1514 1516 1517 1518 1518 1519 1519 1520 1520 1521 1521 1522
1498 1497 1496 1495 1494 1493 1493 1493 1493 1493 1493 1493 1493 1494 1495 1496 1496 1497 1498 1499 1500 1501 1502 1503 1504 1505 1507 1508 1509 1510 1511 1513 1515 1516 1517 1517 1517 1518 1519 1520 1520 1521 1521
1496 1495 1493 1492 1491 1490 1490 1490 1489 1490 1490 1490 1490 1491 1492 1492 1493 1494 1495 1496 1497 1498 1499 1500 1501 1503 1504 1505 1507 1508 1509 1511 1513 1514 1515 1516 1516 1517 1518 1519 1520 1520 1521
1494 1492 1491 1489 1488 1487 1487 1486 1486 1486 1486 1486 1487 1487 1488 1489 1489 1490 1491 1492 1493 1494 1496 1497 1499 1500 1501 1503 1504 1505 1507 1509 1511 1513 1513 1514 1515 1516 1517 1518 1519 1520 1520
1491 1489 1488 1486 1485 1484 1483 1483 1482 1483 1482 1483 1483 1483 1484 1485 1485 1486 1487 1488 1490 1491 1492 1494 1495 1497 1498 1500 1501 1503 1505 1506 1508 1510 1511 1512 1513 1515 1516 1517 1518 1519 1519
1488 1486 1484 1483 1482 1481 1480 1479 1479 1478 1478 1479 1479 1479 1480 1480 1481 1482 1483 1484 1485 1487 1489 1490 1492 1493 1495 1496 1498 1499 1501 1504 1505 1507 1508 1509 1512 1513 1514 1515 1517 1518 1518
1485 1483 1482 1480 1479 1478 1477 1476 1475 1475 1474 1474 1474 1475 1475 1476 1477 1477 1479 1480 1481 1483 1484 1486 1488 1489 1491 1493 1494 1496 1498 1500 1502 1504 1505 1507 1509 1511 1513 1514 1515 1516 1517
1482 1480 1479 1477 1476 1474 1473 1472 1472 1471 1470 1470 1470 1470 1471 1471 1472 1473 1474 1475 1476 1478 1480 1481 1483 1485 1486 1488 1490 1492 1494 1496 1498 1500 1502 1504 1506 1508 1510 1512 1513 1515 1516
1478 1477 1475 1474 1472 1471 1470 1469 1467 1466 1466 1465 1465 1466 1466 1467 1468 1468 1468 1470 1471 1473 1475 1477 1479 1480 1482 1484 1486 1488 1490 1493 1494 1496 1498 1501 1503 1505 1508 1510 1511 1513 1514
1475 1473 1472 1470 1469 1467 1466 1465 1464 1462 1461 1460 1461 1461 1461 1462 1463 1464 1464 1464 1465 1468 1470 1472 1474 1476 1477 1479 1481 1483 1486 1488 1490 1492 1495 1497 1499 1502 1504 1506 1508 1510 1511
1472 1470 1468 1467 1465 1463 1462 1461 1459 1458 1457 1455 1456 1456 1456 1457 1458 1458 1459 1459 1460 1462 1464 1466 1469 1470 1472 1475 1477 1478 1481 1483 1486 1488 1491 1493 1495 1498 1500 1503 1505 1507 1508
1468 1466 1464 1463 1461 1459 1458 1456 1455 1453 1452 1451 1451 1451 1451 1451 1452 1453 1453 1454 1455 1456 1458 1461 1463 1465 1467 1469 1472 1474 1476 1478 1481 1483 1486 1489 1491 1494 1496 1498 1501 1503 1505
1465 1463 1460 1459 1457 1455 1454 1452 1450 1449 1448 1446 1446 1445 1446 1446 1447 1447 1448 1449 1449 1450 1452 1455 1457 1460 1463 1465 1467 1469 1471 1474 1476 1479 1481 1484 1487 1490 1492 1494 1497 1499 1502
1461 1459 1457 1454 1452 1451 1449 1447 1445 1444 1442 1441 1440 1440 1440 1441 1441 1441 1442 1443 1444 1445 1446 1449 1452 1454 1457 1460 1463 1465 1467 1469 1472 1474 1476 1479 1482 1485 1488 1490 1493 1495 1497
1457 1455 1452 1449 1448 1446 1444 1443 1441 1439 1437 1435 1435 1434 1434 1435 1435 1435 1436 1437 1438 1439 1441 1443 1445 1449 1451 1454 1457 1460 1462 1466 1466 1469 1471 1473 1477 1480 1482 1485 1488 1490 1493
1453 1450 1448 1445 1443 1441 1439 1437 1435 1433 1431 1429 1429 1428 1427 1428 1428 1429 1429 1430 1431 1433 1434 1436 1439 1442 1445 1448 1451 1454 1456 1456 1460 1463 1465 1468 1471 1474 1477 1480 1483 1485 1488
1449 1446 1443 1440 1438 1436 1434 1432 1430 1427 1424 1423 1422 1421 1420 1421 1421 1422 1422 1423 1425 1426 1427 1429 1432 1435 1438 1441 1444 1447 1450 1450 1453 1456 1460 1462 1465 1468 1471 1474 1477 1480 1483
1446 1442 1439 1436 1433 1430 1428 1426 1423 1420 1418 1416 1415 1414 1413 1413 1414 1414 1415 1416 1417 1419 1420 1422 1425 1428 1431 1434 1437 1439 1442 1445 1447 1449 1452 1457 1460 1463 1466 1469 1472 1475 1478
1442 1438 1435 1431 1427 1425 1422 1419 1416 1413 1410 1408 1407 1406 1405 1405 1406 1406 1407 1408 1410 1411 1413 1415 1418 1421 1424 1428 1431 1433 1435 1437 1440 1443 1446 1449 1454 1457 1461 1464 1467 1469 1472